TimeCET,TemperatureF,Dew PointF,Humidity,Sea Level PressureIn,VisibilityMPH,Wind Direction,Wind SpeedMPH,Gust SpeedMPH,PrecipitationIn,Events,Conditions,WindDirDegrees,DateUTC
12:15 AM,42.8,41.0,93,30.04,-9999.0,NNE,2.3,-,N/A,,Clear,20,2011-11-15 23:15:00
12:45 AM,42.8,39.2,87,30.04,-9999.0,NE,1.2,-,N/A,,Clear,40,2011-11-15 23:45:00
1:15 AM,41.0,39.2,93,30.04,-9999.0,NE,3.5,-,N/A,,Clear,40,2011-11-16 00:15:00
1:45 AM,41.0,41.0,100,30.04,-9999.0,ENE,3.5,-,N/A,,Clear,70,2011-11-16 00:45:00
2:15 AM,41.0,39.2,93,30.04,-9999.0,NE,2.3,-,N/A,,Clear,40,2011-11-16 01:15:00
2:45 AM,41.0,39.2,93,30.04,5.0,NE,4.6,-,N/A,,Unknown,40,2011-11-16 01:45:00
3:15 AM,39.2,39.2,100,30.04,5.0,NE,2.3,-,N/A,,Unknown,40,2011-11-16 02:15:00
3:45 AM,39.2,37.4,93,30.04,5.0,Calm,Calm,-,N/A,,Unknown,0,2011-11-16 02:45:00
4:15 AM,39.2,39.2,100,30.04,5.0,North,2.3,-,N/A,,Unknown,10,2011-11-16 03:15:00
4:45 AM,39.2,37.4,93,30.04,5.0,NNE,3.5,-,N/A,,Unknown,30,2011-11-16 03:45:00
5:15 AM,37.4,37.4,100,30.04,5.0,NE,1.2,-,N/A,,Unknown,40,2011-11-16 04:15:00
5:45 AM,37.4,35.6,93,30.04,5.0,NE,2.3,-,N/A,,Unknown,50,2011-11-16 04:45:00
6:15 AM,37.4,35.6,93,30.04,5.0,NE,3.5,-,N/A,,Unknown,50,2011-11-16 05:15:00
6:45 AM,37.4,35.6,93,30.04,5.0,NE,2.3,-,N/A,,Unknown,50,2011-11-16 05:45:00
7:15 AM,37.4,37.4,100,30.04,5.0,NE,2.3,-,N/A,,Unknown,40,2011-11-16 06:15:00
7:45 AM,39.2,37.4,93,30.06,5.0,NE,2.3,-,N/A,,Unknown,40,2011-11-16 06:45:00
8:15 AM,39.2,37.4,93,30.06,5.0,NNE,2.3,-,N/A,,Unknown,30,2011-11-16 07:15:00
8:45 AM,42.8,41.0,93,30.06,5.0,NE,4.6,-,N/A,,Unknown,40,2011-11-16 07:45:00
9:15 AM,44.6,37.4,76,30.09,5.0,NNE,4.6,-,N/A,,Unknown,30,2011-11-16 08:15:00
9:45 AM,46.4,39.2,76,30.09,5.0,North,3.5,-,N/A,,Unknown,10,2011-11-16 08:45:00
10:15 AM,48.2,39.2,71,30.09,5.6,NE,6.9,-,N/A,,Unknown,40,2011-11-16 09:15:00
10:45 AM,50.0,39.2,66,30.09,-9999.0,NE,5.8,-,N/A,,Clear,40,2011-11-16 09:45:00
11:15 AM,51.8,41.0,67,30.09,-9999.0,NE,3.5,-,N/A,,Clear,50,2011-11-16 10:15:00
11:45 AM,53.6,41.0,62,30.09,-9999.0,NNE,3.5,-,N/A,,Clear,20,2011-11-16 10:45:00
12:15 PM,55.4,41.0,58,30.09,-9999.0,North,5.8,-,N/A,,Clear,360,2011-11-16 11:15:00
12:45 PM,57.2,41.0,55,30.06,-9999.0,North,4.6,-,N/A,,Clear,10,2011-11-16 11:45:00
1:15 PM,57.2,41.0,55,30.06,-9999.0,NNE,3.5,-,N/A,,Clear,20,2011-11-16 12:15:00
1:45 PM,59.0,39.2,48,30.06,-9999.0,North,3.5,-,N/A,,Clear,350,2011-11-16 12:45:00
2:15 PM,59.0,37.4,45,30.06,-9999.0,North,5.8,-,N/A,,Clear,350,2011-11-16 13:15:00
2:45 PM,59.0,35.6,42,30.06,-9999.0,North,4.6,-,N/A,,Clear,350,2011-11-16 13:45:00
3:15 PM,59.0,35.6,42,30.06,-9999.0,NW,4.6,-,N/A,,Clear,320,2011-11-16 14:15:00
3:45 PM,59.0,35.6,42,30.06,-9999.0,NNW,4.6,-,N/A,,Clear,330,2011-11-16 14:45:00
4:15 PM,57.2,35.6,44,30.06,-9999.0,NNW,1.2,-,N/A,,Clear,330,2011-11-16 15:15:00
4:45 PM,57.2,37.4,48,30.06,-9999.0,NNE,1.2,-,N/A,,Clear,20,2011-11-16 15:45:00
5:15 PM,55.4,37.4,51,30.06,-9999.0,ENE,3.5,-,N/A,,Clear,60,2011-11-16 16:15:00
5:45 PM,51.8,41.0,67,30.09,-9999.0,East,4.6,-,N/A,,Clear,90,2011-11-16 16:45:00
6:15 PM,50.0,42.8,76,30.09,-9999.0,East,3.5,-,N/A,,Clear,90,2011-11-16 17:15:00
6:45 PM,50.0,42.8,76,30.09,-9999.0,East,2.3,-,N/A,,Clear,100,2011-11-16 17:45:00
7:15 PM,48.2,41.0,76,30.09,-9999.0,East,3.5,-,N/A,,Clear,80,2011-11-16 18:15:00
7:45 PM,48.2,41.0,76,30.09,-9999.0,Calm,Calm,-,N/A,,Clear,0,2011-11-16 18:45:00
8:15 PM,48.2,41.0,76,30.09,-9999.0,Calm,Calm,-,N/A,,Clear,0,2011-11-16 19:15:00
8:45 PM,46.4,41.0,81,30.09,-9999.0,NNE,1.2,-,N/A,,Clear,30,2011-11-16 19:45:00
9:15 PM,46.4,41.0,81,30.12,-9999.0,East,2.3,-,N/A,,Clear,80,2011-11-16 20:15:00
9:45 PM,46.4,41.0,81,30.12,-9999.0,Calm,Calm,-,N/A,,Clear,0,2011-11-16 20:45:00
10:15 PM,44.6,41.0,87,30.12,-9999.0,NE,2.3,-,N/A,,Clear,40,2011-11-16 21:15:00
10:45 PM,44.6,41.0,87,30.12,-9999.0,NE,1.2,-,N/A,,Clear,50,2011-11-16 21:45:00
11:15 PM,42.8,41.0,93,30.12,-9999.0,NE,2.3,-,N/A,,Clear,40,2011-11-16 22:15:00
11:45 PM,42.8,41.0,93,30.12,-9999.0,NNE,2.3,-,N/A,,Clear,20,2011-11-16 22:45:00